Find Local Weather

World > North America > United States > Florida

Boca Raton, Florida Regional Weather

Lat: 26.36N, Lon: 80.1W
Wx Zone: FLZ168
Warning FLW WEATHER ALERT - (More Info. Click Here) Warning
Feedback
Expires:201811192100;;552971
ASUS42 KTBW 192017
RWRFL 
FLORIDA REGIONAL WEATHER ROUNDUP
NATIONAL WEATHER SERVICE TAMPA BAY RUSKIN FL
300 PM EST MON NOV 19 2018

NOTE: "FAIR" INDICATES FEW OR NO CLOUDS BELOW 12,000 FEET WITH NO
SIGNIFICANT WEATHER AND/OR OBSTRUCTIONS TO VISIBILITY.


FLZ067-068-071>074-168-172>174-192100-
SOUTHEAST FLORIDA 
  
CITY           SKY/WX    TMP DP  RH WIND       PRES   REMARKS
W PALM BEACH   PTSUNNY   79  70  74 E9        30.03F                  
BOCA RATON     MOSUNNY   81  70  69 SE6       30.03S                  
FT LAUDER-EXEC FAIR      82  69  64 SE7       30.02F                  
FT LAUDERDALE  PTSUNNY   81  72  74 SE9       30.01F                  
POMPANO BEACH  PTSUNNY   82  69  64 SE9       30.02F                  
PEMBROKE PINES FAIR      85  69  58 E10       30.03F                  
OPA LOCKA      FAIR      82  70  66 E8        30.02F                  
MIAMI          PTSUNNY   82  71  69 S9        30.02F                  
WEST KENDALL   FAIR      84  69  60 E9        30.01F                  
HOMESTEAD      FAIR      83  70  64 E8        30.01F                  

STATION/POSITION SKY/WX   TEMP    WIND        PRES    WAVE   SWELL
                          AIR SEA DIR/SP/G            HT/PER HT/PER
                          (F)     (DEG/KT/KT) (MB)    (FT/S) (FT/S)
VIRGINIA KEY               80 79   70/  4/  5 1016.4F
LAKE WORTH                 79 81  120/  5/  7 1018.0F
FOWEY ROCKS                79 78  100/  7/  8 1017.1F
SETTLEMENT POINT           78      40/  7/  8 1017.7S

$$

  

SKY/WX - Weather  TMP - Temperature  DP - Dew Point  RH - Relative Humidity
WIND - Wind Direction/Speed PRES - Barometric Pressure